| time (UTC) | temp F | wind direction | speed knots | gust knots | rain 1hr in | rain 24hr in | rain mn in | humidity % | barometer mb |
| 20260507153425 | 60 | 242 | 8.7 | 16.5 | 0.00 | 0.36 | 0.01 | 66 | 1014.6 |
| 20260507153323 | 60 | 266 | 8.7 | 17.4 | 0.00 | 0.36 | 0.01 | 66 | 1014.7 |
| 20260507152414 | 58 | 263 | 12.2 | 17.4 | 0.00 | 0.36 | 0.01 | 62 | 1014.7 |
| 20260507152347 | 58 | 259 | 12.2 | 17.4 | 0.00 | 0.36 | 0.01 | 64 | 1014.7 |
| 20260507151419 | 57 | 239 | 12.2 | 15.6 | 0.00 | 0.36 | 0.01 | 66 | 1014.8 |
| 20260507151311 | 57 | 246 | 11.3 | 15.6 | 0.00 | 0.36 | 0.01 | 68 | 1014.7 |
| 20260507150423 | 55 | 271 | 10.4 | 16.5 | 0.01 | 0.36 | 0.01 | 73 | 1014.7 |
| 20260507150316 | 55 | 250 | 12.2 | 16.5 | 0.01 | 0.36 | 0.01 | 73 | 1014.7 |
| 20260507145428 | 54 | 233 | 8.7 | 16.5 | 0.01 | 0.36 | 0.01 | 77 | 1014.8 |
| 20260507145324 | 54 | 255 | 9.6 | 16.5 | 0.01 | 0.40 | 0.01 | 77 | 1014.8 |
| 20260507144415 | 52 | 235 | 10.4 | 16.5 | 0.01 | 0.40 | 0.01 | 77 | 1014.8 |
| 20260507144348 | 52 | 255 | 12.2 | 16.5 | 0.01 | 0.40 | 0.01 | 77 | 1014.8 |
| 20260507143419 | 51 | 248 | 10.4 | 19.1 | 0.01 | 0.40 | 0.01 | 79 | 1014.8 |
| 20260507143312 | 51 | 236 | 11.3 | 19.1 | 0.01 | 0.40 | 0.01 | 79 | 1014.8 |
| 20260507142423 | 50 | 244 | 13.0 | 17.4 | 0.01 | 0.40 | 0.01 | 80 | 1014.8 |
| 20260507142317 | 50 | 217 | 13.9 | 17.4 | 0.01 | 0.40 | 0.01 | 80 | 1014.8 |
| 20260507141428 | 49 | 244 | 13.9 | 18.2 | 0.01 | 0.40 | 0.01 | 82 | 1014.8 |
| 20260507141320 | 49 | 240 | 13.9 | 18.2 | 0.01 | 0.40 | 0.01 | 82 | 1014.7 |
| 20260507140415 | 48 | 211 | 11.3 | 16.5 | 0.00 | 0.39 | 0.00 | 83 | 1014.8 |
| 20260507140349 | 48 | 271 | 10.4 | 16.5 | 0.00 | 0.39 | 0.00 | 84 | 1014.8 |
| 20260507135417 | 47 | 226 | 10.4 | 17.4 | 0.00 | 0.39 | 0.00 | 84 | 1014.7 |
| 20260507135328 | 47 | 271 | 11.3 | 17.4 | 0.00 | 0.39 | 0.00 | 84 | 1014.7 |
| 20260507134418 | 45 | 249 | 12.2 | 19.1 | 0.00 | 0.39 | 0.00 | 85 | 1014.9 |
| 20260507134311 | 45 | 232 | 13.0 | 19.1 | 0.00 | 0.39 | 0.00 | 85 | 1014.9 |
| 20260507133423 | 44 | 240 | 14.8 | 19.1 | 0.00 | 0.39 | 0.00 | 87 | 1014.8 |
| 20260507133316 | 44 | 246 | 13.9 | 18.2 | 0.00 | 0.39 | 0.00 | 87 | 1014.8 |
| 20260507132427 | 42 | 243 | 12.2 | 17.4 | 0.00 | 0.39 | 0.00 | 89 | 1014.8 |
| 20260507132323 | 42 | 227 | 12.2 | 17.4 | 0.00 | 0.39 | 0.00 | 89 | 1014.7 |
| 20260507131414 | 41 | 237 | 12.2 | 18.2 | 0.00 | 0.39 | 0.00 | 89 | 1014.7 |
| 20260507131327 | 41 | 235 | 13.0 | 18.2 | 0.00 | 0.39 | 0.00 | 89 | 1014.7 |
| 20260507130438 | 40 | 257 | 10.4 | 15.6 | 0.00 | 0.39 | 0.00 | 91 | 1014.7 |
| 20260507130329 | 40 | 226 | 10.4 | 15.6 | 0.00 | 0.39 | 0.00 | 91 | 1014.7 |
| 20260507125419 | 39 | 257 | 12.2 | 16.5 | 0.00 | 0.39 | 0.00 | 92 | 1014.6 |
| 20260507125310 | 39 | 262 | 12.2 | 16.5 | 0.00 | 0.39 | 0.00 | 92 | 1014.6 |
| 20260507124419 | 38 | 240 | 10.4 | 13.9 | 0.00 | 0.39 | 0.00 | 93 | 1014.7 |
| 20260507124312 | 38 | 224 | 10.4 | 14.8 | 0.00 | 0.39 | 0.00 | 93 | 1014.7 |
| 20260507123423 | 37 | 261 | 9.6 | 15.6 | 0.00 | 0.39 | 0.00 | 94 | 1014.7 |
| 20260507123320 | 37 | 256 | 10.4 | 15.6 | 0.00 | 0.39 | 0.00 | 94 | 1014.7 |
| 20260507122410 | 36 | 261 | 10.4 | 14.8 | 0.00 | 0.39 | 0.00 | 94 | 1014.7 |
| 20260507122343 | 36 | 265 | 10.4 | 13.9 | 0.00 | 0.39 | 0.00 | 94 | 1014.6 |
| 20260507121433 | 36 | 234 | 10.4 | 14.8 | 0.00 | 0.39 | 0.00 | 95 | 1014.7 |
| 20260507121324 | 36 | 221 | 10.4 | 14.8 | 0.00 | 0.39 | 0.00 | 95 | 1014.7 |
| 20260507120416 | 35 | 247 | 9.6 | 13.9 | 0.00 | 0.39 | 0.00 | 95 | 1014.8 |
| 20260507120328 | 35 | 234 | 10.4 | 13.9 | 0.00 | 0.39 | 0.00 | 95 | 1014.8 |
| 20260507115418 | 35 | 250 | 8.7 | 13.9 | 0.00 | 0.39 | 0.00 | 95 | 1014.8 |
| 20260507115309 | 35 | 260 | 8.7 | 13.9 | 0.00 | 0.39 | 0.00 | 96 | 1014.8 |
| 20260507114439 | 34 | 252 | 9.6 | 13.9 | 0.00 | 0.39 | 0.00 | 96 | 1014.8 |
| 20260507114313 | 34 | 221 | 9.6 | 13.9 | 0.00 | 0.39 | 0.00 | 96 | 1014.8 |
| 20260507113425 | 34 | 234 | 9.6 | 13.0 | 0.00 | 0.39 | 0.00 | 95 | 1014.9 |
| 20260507113319 | 34 | 236 | 9.6 | 13.0 | 0.00 | 0.39 | 0.00 | 95 | 1014.9 |
| 20260507112409 | 34 | 254 | 9.6 | 14.8 | 0.00 | 0.39 | 0.00 | 95 | 1015.1 |
| 20260507112322 | 34 | 250 | 10.4 | 14.8 | 0.00 | 0.39 | 0.00 | 95 | 1015.1 |
| 20260507111413 | 35 | 224 | 10.4 | 13.9 | 0.00 | 0.39 | 0.00 | 95 | 1015.1 |
| 20260507111326 | 35 | 237 | 9.6 | 13.9 | 0.00 | 0.39 | 0.00 | 95 | 1015.1 |
| 20260507110418 | 35 | 233 | 10.4 | 15.6 | 0.00 | 0.39 | 0.00 | 95 | 1015.2 |
| 20260507110314 | 35 | 245 | 11.3 | 15.6 | 0.00 | 0.39 | 0.00 | 95 | 1015.3 |
| 20260507105425 | 35 | 222 | 10.4 | 13.0 | 0.00 | 0.40 | 0.00 | 95 | 1015.2 |
| 20260507105338 | 35 | 246 | 9.6 | 15.6 | 0.00 | 0.40 | 0.00 | 95 | 1015.2 |
| 20260507104427 | 35 | 236 | 12.2 | 16.5 | 0.00 | 0.40 | 0.00 | 96 | 1015.5 |
| 20260507104319 | 35 | 236 | 11.3 | 16.5 | 0.00 | 0.40 | 0.00 | 96 | 1015.5 |
| 20260507103412 | 35 | 236 | 11.3 | 14.8 | 0.00 | 0.40 | 0.00 | 96 | 1015.5 |
| 20260507103324 | 35 | 236 | 11.3 | 14.8 | 0.00 | 0.40 | 0.00 | 96 | 1015.5 |
| 20260507102413 | 35 | 235 | 10.4 | 13.0 | 0.00 | 0.40 | 0.00 | 96 | 1015.6 |
| 20260507102324 | 35 | 232 | 10.4 | 13.0 | 0.00 | 0.40 | 0.00 | 96 | 1015.6 |
| 20260507101436 | 35 | 237 | 10.4 | 13.0 | 0.00 | 0.40 | 0.00 | 96 | 1015.6 |
| 20260507101312 | 35 | 225 | 10.4 | 13.0 | 0.00 | 0.40 | 0.00 | 96 | 1015.7 |
| 20260507100423 | 35 | 234 | 9.6 | 15.6 | 0.00 | 0.40 | 0.00 | 97 | 1015.8 |
| 20260507100336 | 35 | 232 | 11.3 | 15.6 | 0.00 | 0.40 | 0.00 | 97 | 1015.8 |
| 20260507095423 | 34 | 225 | 11.3 | 13.9 | 0.00 | 0.46 | 0.00 | 97 | 1015.8 |
| 20260507095315 | 34 | 246 | 9.6 | 12.2 | 0.00 | 0.46 | 0.00 | 97 | 1015.9 |
| 20260507094447 | 34 | 232 | 7.8 | 12.2 | 0.00 | 0.46 | 0.00 | 97 | 1016.1 |
| 20260507094319 | 34 | 240 | 7.8 | 12.2 | 0.00 | 0.46 | 0.00 | 97 | 1016.1 |
| 20260507093411 | 34 | 250 | 8.7 | 13.0 | 0.00 | 0.46 | 0.00 | 97 | 1016.1 |
| 20260507093324 | 34 | 232 | 8.7 | 13.0 | 0.00 | 0.46 | 0.00 | 97 | 1016.1 |
| 20260507092416 | 34 | 237 | 9.6 | 13.9 | 0.00 | 0.46 | 0.00 | 98 | 1016.1 |
| 20260507092313 | 34 | 255 | 10.4 | 13.9 | 0.00 | 0.46 | 0.00 | 98 | 1016.1 |
| 20260507091424 | 34 | 244 | 9.6 | 13.9 | 0.00 | 0.46 | 0.00 | 97 | 1016.3 |
| 20260507091315 | 34 | 244 | 9.6 | 13.9 | 0.00 | 0.46 | 0.00 | 97 | 1016.3 |
| 20260507090427 | 34 | 229 | 10.4 | 15.6 | 0.00 | 0.46 | 0.00 | 97 | 1016.4 |
| 20260507090339 | 34 | 232 | 10.4 | 16.5 | 0.00 | 0.46 | 0.00 | 97 | 1016.5 |
| 20260507085411 | 34 | 236 | 12.2 | 15.6 | 0.00 | 0.50 | 0.00 | 97 | 1016.7 |
| 20260507085322 | 34 | 230 | 12.2 | 15.6 | 0.00 | 0.50 | 0.00 | 97 | 1016.6 |
| 20260507084415 | 34 | 229 | 13.0 | 16.5 | 0.00 | 0.50 | 0.00 | 97 | 1016.7 |
| 20260507084325 | 34 | 239 | 13.0 | 15.6 | 0.00 | 0.50 | 0.00 | 97 | 1016.7 |
| 20260507083416 | 34 | 230 | 12.2 | 15.6 | 0.00 | 0.50 | 0.00 | 97 | 1016.7 |
| 20260507083313 | 34 | 226 | 13.0 | 15.6 | 0.00 | 0.50 | 0.00 | 97 | 1016.7 |
| 20260507082444 | 35 | 228 | 11.3 | 14.8 | 0.00 | 0.50 | 0.00 | 97 | 1016.7 |
| 20260507082318 | 35 | 228 | 11.3 | 14.8 | 0.00 | 0.50 | 0.00 | 97 | 1016.8 |
| 20260507081409 | 35 | 217 | 10.4 | 14.8 | 0.00 | 0.50 | 0.00 | 97 | 1016.8 |
| 20260507081322 | 35 | 235 | 10.4 | 15.6 | 0.00 | 0.50 | 0.00 | 97 | 1016.9 |
| 20260507080414 | 35 | 229 | 11.3 | 16.5 | 0.00 | 0.50 | 0.00 | 97 | 1017.1 |
| 20260507080347 | 35 | 234 | 12.2 | 16.5 | 0.00 | 0.50 | 0.00 | 97 | 1017.1 |
| 20260507075417 | 35 | 223 | 11.3 | 16.5 | 0.00 | 0.52 | 0.00 | 98 | 1017.3 |
| 20260507075309 | 35 | 231 | 12.2 | 16.5 | 0.00 | 0.52 | 0.00 | 98 | 1017.3 |
| 20260507074420 | 34 | 229 | 13.0 | 15.6 | 0.00 | 0.52 | 0.00 | 98 | 1017.3 |
| 20260507074318 | 34 | 229 | 12.2 | 15.6 | 0.00 | 0.52 | 0.00 | 98 | 1017.3 |
| 20260507073428 | 34 | 234 | 11.3 | 13.9 | 0.00 | 0.52 | 0.00 | 98 | 1017.4 |
| 20260507073322 | 34 | 229 | 11.3 | 13.9 | 0.00 | 0.52 | 0.00 | 98 | 1017.5 |
| 20260507072433 | 34 | 235 | 11.3 | 13.9 | 0.00 | 0.52 | 0.00 | 97 | 1017.7 |
| 20260507072345 | 34 | 243 | 11.3 | 13.9 | 0.00 | 0.52 | 0.00 | 97 | 1017.7 |
| 20260507071416 | 34 | 229 | 10.4 | 12.2 | 0.00 | 0.52 | 0.00 | 97 | 1017.9 |
| 20260507071349 | 34 | 227 | 10.4 | 12.2 | 0.00 | 0.52 | 0.00 | 97 | 1017.9 |
| 20260507070418 | 34 | 233 | 9.6 | 13.9 | 0.00 | 0.52 | 0.00 | 97 | 1018.0 |
| 20260507070311 | 34 | 219 | 9.6 | 13.9 | 0.00 | 0.52 | 0.00 | 97 | 1018.0 |
| 20260507065423 | 35 | 242 | 9.6 | 13.0 | 0.00 | 0.55 | 0.00 | 97 | 1018.1 |
| 20260507065316 | 35 | 230 | 10.4 | 13.0 | 0.00 | 0.55 | 0.00 | 97 | 1018.1 |
| 20260507064428 | 35 | 221 | 9.6 | 13.9 | 0.00 | 0.55 | 0.00 | 97 | 1018.1 |
| 20260507064319 | 35 | 227 | 9.6 | 13.9 | 0.00 | 0.55 | 0.00 | 97 | 1018.1 |
| 20260507063431 | 35 | 242 | 10.4 | 14.8 | 0.00 | 0.55 | 0.00 | 97 | 1018.3 |
| 20260507063323 | 35 | 241 | 11.3 | 14.8 | 0.00 | 0.55 | 0.00 | 97 | 1018.3 |
| 20260507062413 | 35 | 243 | 10.4 | 13.0 | 0.00 | 0.55 | 0.00 | 97 | 1018.4 |
| 20260507062326 | 35 | 230 | 11.3 | 13.0 | 0.00 | 0.55 | 0.00 | 97 | 1018.4 |
| 20260507061417 | 35 | 231 | 8.7 | 12.2 | 0.00 | 0.55 | 0.00 | 97 | 1018.6 |
| 20260507061310 | 35 | 234 | 8.7 | 12.2 | 0.00 | 0.55 | 0.00 | 97 | 1018.6 |
| 20260507060422 | 36 | 226 | 10.4 | 15.6 | 0.00 | 0.55 | 0.00 | 97 | 1018.5 |
| 20260507060318 | 36 | 223 | 10.4 | 15.6 | 0.00 | 0.55 | 0.00 | 97 | 1018.5 |
| 20260507055410 | 36 | 234 | 8.7 | 12.2 | 0.00 | 0.56 | 0.55 | 97 | 1018.6 |
| 20260507055322 | 36 | 214 | 9.6 | 12.2 | 0.00 | 0.56 | 0.55 | 97 | 1018.5 |
| 20260507054415 | 36 | 222 | 8.7 | 13.0 | 0.00 | 0.56 | 0.55 | 97 | 1018.5 |
| 20260507054328 | 36 | 218 | 8.7 | 13.0 | 0.00 | 0.56 | 0.55 | 97 | 1018.6 |
| 20260507053438 | 36 | 218 | 8.7 | 11.3 | 0.00 | 0.56 | 0.55 | 97 | 1018.6 |
| 20260507053311 | 36 | 211 | 8.7 | 11.3 | 0.00 | 0.56 | 0.55 | 97 | 1018.6 |
| 20260507052443 | 36 | 211 | 8.7 | 11.3 | 0.00 | 0.56 | 0.55 | 97 | 1018.8 |
| 20260507052318 | 36 | 228 | 7.8 | 9.6 | 0.00 | 0.56 | 0.55 | 97 | 1018.8 |
| 20260507051410 | 36 | 230 | 7.8 | 13.0 | 0.00 | 0.56 | 0.55 | 97 | 1018.9 |
| 20260507051323 | 36 | 219 | 7.8 | 13.0 | 0.00 | 0.56 | 0.55 | 97 | 1018.8 |
| 20260507050435 | 36 | 242 | 8.7 | 13.0 | 0.00 | 0.56 | 0.55 | 97 | 1018.8 |
| 20260507050325 | 36 | 222 | 8.7 | 13.0 | 0.00 | 0.56 | 0.55 | 97 | 1018.8 |
| 20260507045414 | 36 | 221 | 7.8 | 12.2 | 0.00 | 0.63 | 0.55 | 97 | 1019.0 |
| 20260507045347 | 36 | 187 | 7.8 | 12.2 | 0.00 | 0.63 | 0.55 | 97 | 1019.0 |
| 20260507044418 | 36 | 222 | 7.8 | 12.2 | 0.00 | 0.63 | 0.55 | 97 | 1019.1 |
| 20260507044311 | 36 | 242 | 7.8 | 12.2 | 0.00 | 0.63 | 0.55 | 97 | 1019.1 |
| 20260507043422 | 36 | 229 | 7.8 | 10.4 | 0.00 | 0.63 | 0.55 | 97 | 1019.0 |
| 20260507043320 | 36 | 224 | 7.8 | 10.4 | 0.00 | 0.63 | 0.55 | 97 | 1019.0 |
| 20260507042449 | 36 | 212 | 7.0 | 9.6 | 0.00 | 0.63 | 0.55 | 97 | 1019.0 |
| 20260507042321 | 37 | 227 | 7.0 | 9.6 | 0.00 | 0.63 | 0.55 | 97 | 1019.0 |
| 20260507041413 | 36 | 221 | 7.0 | 10.4 | 0.00 | 0.63 | 0.55 | 97 | 1019.1 |
| 20260507041326 | 36 | 227 | 7.0 | 10.4 | 0.00 | 0.63 | 0.55 | 97 | 1019.1 |
| 20260507040417 | 37 | 220 | 7.0 | 9.6 | 0.00 | 0.63 | 0.55 | 96 | 1019.1 |
| 20260507040310 | 36 | 229 | 7.0 | 9.6 | 0.00 | 0.63 | 0.55 | 96 | 1019.2 |
| 20260507035423 | 37 | 227 | 7.8 | 10.4 | 0.00 | 0.70 | 0.55 | 96 | 1019.3 |
| 20260507035320 | 37 | 215 | 7.0 | 9.6 | 0.00 | 0.70 | 0.55 | 96 | 1019.2 |
| 20260507034430 | 37 | 226 | 7.8 | 10.4 | 0.00 | 0.70 | 0.55 | 96 | 1019.2 |
| 20260507034321 | 37 | 225 | 7.0 | 9.6 | 0.00 | 0.70 | 0.55 | 96 | 1019.2 |
| 20260507033412 | 37 | 232 | 7.0 | 9.6 | 0.00 | 0.70 | 0.55 | 96 | 1019.3 |
| 20260507033325 | 37 | 229 | 7.0 | 9.6 | 0.00 | 0.70 | 0.55 | 96 | 1019.1 |
| 20260507032415 | 37 | 221 | 7.0 | 8.7 | 0.00 | 0.70 | 0.55 | 96 | 1019.2 |
| 20260507032329 | 37 | 232 | 6.1 | 8.7 | 0.00 | 0.70 | 0.55 | 96 | 1019.2 |
| 20260507031439 | 37 | 225 | 7.0 | 8.7 | 0.00 | 0.70 | 0.55 | 96 | 1019.2 |
| 20260507031309 | 37 | 219 | 7.0 | 8.7 | 0.00 | 0.70 | 0.55 | 96 | 1019.1 |
| 20260507030420 | 37 | 214 | 6.1 | 7.8 | 0.00 | 0.70 | 0.55 | 96 | 1019.1 |
| 20260507030317 | 37 | 223 | 7.0 | 8.7 | 0.00 | 0.70 | 0.55 | 96 | 1019.2 |
| 20260507025410 | 37 | 216 | 5.2 | 7.8 | 0.00 | 0.76 | 0.55 | 96 | 1019.0 |
| 20260507025322 | 37 | 219 | 5.2 | 7.8 | 0.00 | 0.76 | 0.55 | 96 | 1019.0 |
| 20260507024414 | 37 | 230 | 6.1 | 7.8 | 0.00 | 0.76 | 0.55 | 95 | 1019.0 |
| 20260507024324 | 37 | 232 | 6.1 | 7.8 | 0.00 | 0.76 | 0.55 | 95 | 1019.0 |
| 20260507023434 | 37 | 234 | 6.1 | 7.8 | 0.00 | 0.76 | 0.55 | 94 | 1018.8 |
| 20260507023323 | 37 | 236 | 6.1 | 7.0 | 0.00 | 0.76 | 0.55 | 94 | 1018.8 |
| 20260507022411 | 38 | 233 | 6.1 | 7.8 | 0.00 | 0.76 | 0.55 | 94 | 1018.8 |
| 20260507022328 | 38 | 240 | 6.1 | 7.8 | 0.00 | 0.76 | 0.55 | 94 | 1018.8 |
| 20260507021419 | 38 | 240 | 4.3 | 7.0 | 0.00 | 0.76 | 0.55 | 93 | 1018.8 |
| 20260507021333 | 38 | 230 | 4.3 | 7.0 | 0.00 | 0.76 | 0.55 | 92 | 1018.8 |
| 20260507020421 | 39 | 252 | 4.3 | 6.1 | 0.00 | 0.76 | 0.55 | 92 | 1018.7 |
| 20260507020314 | 39 | 238 | 4.3 | 7.0 | 0.00 | 0.76 | 0.55 | 92 | 1018.7 |
| 20260507015426 | 40 | 247 | 4.3 | 8.7 | 0.00 | 0.77 | 0.55 | 92 | 1018.6 |
| 20260507015318 | 40 | 233 | 6.1 | 8.7 | 0.00 | 0.77 | 0.55 | 92 | 1018.5 |
| 20260507014428 | 41 | 224 | 7.0 | 8.7 | 0.00 | 0.77 | 0.55 | 92 | 1018.6 |
| 20260507014318 | 41 | 221 | 7.8 | 8.7 | 0.00 | 0.77 | 0.55 | 92 | 1018.6 |
| 20260507013448 | 41 | 228 | 6.1 | 9.6 | 0.00 | 0.77 | 0.55 | 92 | 1018.5 |
| 20260507013324 | 41 | 227 | 6.1 | 8.7 | 0.00 | 0.77 | 0.55 | 92 | 1018.5 |
| 20260507012414 | 42 | 230 | 7.8 | 9.6 | 0.00 | 0.77 | 0.55 | 91 | 1018.6 |
| 20260507012327 | 42 | 234 | 7.8 | 9.6 | 0.00 | 0.77 | 0.55 | 91 | 1018.6 |
| 20260507011438 | 42 | 235 | 7.0 | 10.4 | 0.00 | 0.77 | 0.55 | 90 | 1018.5 |
| 20260507011310 | 42 | 223 | 7.0 | 10.4 | 0.00 | 0.77 | 0.55 | 90 | 1018.6 |
| 20260507010442 | 43 | 215 | 8.7 | 13.0 | 0.00 | 0.77 | 0.55 | 89 | 1018.5 |
| 20260507010313 | 43 | 213 | 7.8 | 13.0 | 0.00 | 0.77 | 0.55 | 89 | 1018.5 |
| 20260507005425 | 43 | 242 | 9.6 | 13.0 | 0.00 | 0.77 | 0.55 | 88 | 1018.5 |
| 20260507005317 | 43 | 231 | 9.6 | 13.0 | 0.00 | 0.77 | 0.55 | 88 | 1018.6 |
| 20260507004414 | 44 | 234 | 8.7 | 13.0 | 0.00 | 0.77 | 0.55 | 89 | 1018.6 |
| 20260507004327 | 44 | 230 | 8.7 | 13.0 | 0.00 | 0.77 | 0.55 | 88 | 1018.5 |
| 20260507003418 | 44 | 236 | 10.4 | 13.0 | 0.00 | 0.77 | 0.55 | 88 | 1018.6 |
| 20260507003312 | 44 | 211 | 10.4 | 13.0 | 0.00 | 0.77 | 0.55 | 88 | 1018.6 |
| 20260507002442 | 44 | 215 | 8.7 | 12.2 | 0.00 | 0.77 | 0.55 | 88 | 1018.5 |
| 20260507002335 | 44 | 220 | 8.7 | 12.2 | 0.00 | 0.77 | 0.55 | 89 | 1018.5 |
| 20260507001444 | 44 | 228 | 8.7 | 10.4 | 0.00 | 0.77 | 0.55 | 92 | 1018.6 |
| 20260507001317 | 44 | 226 | 7.8 | 10.4 | 0.00 | 0.77 | 0.55 | 92 | 1018.6 |
| 20260507000450 | 43 | 223 | 6.1 | 9.6 | 0.00 | 0.77 | 0.55 | 91 | 1018.6 |
| 20260507000321 | 43 | 223 | 7.0 | 9.6 | 0.00 | 0.77 | 0.55 | 91 | 1018.6 |
| 20260506235430 | 43 | 207 | 6.1 | 9.6 | 0.00 | 0.77 | 0.55 | 92 | 1018.7 |
| 20260506235324 | 43 | 242 | 7.0 | 9.6 | 0.00 | 0.77 | 0.55 | 91 | 1018.7 |
| 20260506234416 | 43 | 215 | 7.0 | 10.4 | 0.00 | 0.77 | 0.55 | 92 | 1018.7 |
| 20260506234326 | 43 | 181 | 6.1 | 10.4 | 0.00 | 0.77 | 0.55 | 92 | 1018.8 |
| 20260506233414 | 43 | 208 | 7.0 | 10.4 | 0.01 | 0.77 | 0.55 | 91 | 1018.9 |
| 20260506233328 | 43 | 219 | 7.8 | 10.4 | 0.01 | 0.77 | 0.55 | 92 | 1018.9 |
| 20260506232419 | 43 | 204 | 7.8 | 11.3 | 0.01 | 0.77 | 0.55 | 91 | 1018.9 |
| 20260506232313 | 43 | 197 | 7.8 | 12.2 | 0.01 | 0.77 | 0.55 | 91 | 1018.9 |
| 20260506231424 | 43 | 221 | 7.0 | 12.2 | 0.02 | 0.77 | 0.55 | 92 | 1019.1 |
| 20260506231336 | 43 | 215 | 7.8 | 12.2 | 0.02 | 0.77 | 0.55 | 93 | 1019.0 |
| 20260506230410 | 43 | 206 | 7.0 | 8.7 | 0.03 | 0.77 | 0.55 | 93 | 1018.9 |
| 20260506230322 | 43 | 239 | 7.0 | 8.7 | 0.03 | 0.77 | 0.55 | 94 | 1018.9 |
| 20260506225433 | 43 | 215 | 5.2 | 7.8 | 0.04 | 0.77 | 0.55 | 94 | 1018.8 |
| 20260506225324 | 43 | 232 | 4.3 | 7.8 | 0.04 | 0.77 | 0.55 | 94 | 1018.8 |
| 20260506224415 | 42 | 240 | 6.1 | 8.7 | 0.07 | 0.77 | 0.55 | 93 | 1018.8 |
| 20260506224326 | 42 | 242 | 6.1 | 8.7 | 0.07 | 0.77 | 0.55 | 93 | 1018.9 |
| 20260506223416 | 42 | 219 | 3.5 | 7.0 | 0.07 | 0.76 | 0.54 | 94 | 1018.9 |
| 20260506223329 | 42 | 232 | 3.5 | 7.0 | 0.07 | 0.76 | 0.54 | 94 | 1018.9 |
| 20260506222421 | 42 | 233 | 5.2 | 7.0 | 0.07 | 0.76 | 0.54 | 94 | 1019.0 |
| 20260506222317 | 42 | 246 | 4.3 | 6.1 | 0.07 | 0.76 | 0.54 | 94 | 1019.0 |
| 20260506221445 | 42 | 234 | 4.3 | 8.7 | 0.06 | 0.75 | 0.53 | 94 | 1019.0 |
| 20260506221321 | 42 | 246 | 6.1 | 8.7 | 0.06 | 0.75 | 0.53 | 94 | 1019.0 |
| 20260506220412 | 42 | 252 | 5.2 | 7.8 | 0.05 | 0.74 | 0.52 | 94 | 1019.0 |
| 20260506220324 | 42 | 238 | 4.3 | 6.1 | 0.05 | 0.74 | 0.52 | 94 | 1019.0 |
| 20260506215415 | 42 | 230 | 2.6 | 10.4 | 0.05 | 0.81 | 0.51 | 92 | 1019.0 |
| 20260506215348 | 42 | 225 | 2.6 | 10.4 | 0.05 | 0.81 | 0.51 | 91 | 1019.0 |
| 20260506214419 | 42 | 267 | 6.1 | 8.7 | 0.02 | 0.78 | 0.48 | 91 | 1019.0 |
| 20260506214311 | 43 | 247 | 4.3 | 7.8 | 0.02 | 0.78 | 0.48 | 91 | 1019.1 |
| 20260506213444 | 43 | 229 | 4.3 | 6.1 | 0.01 | 0.77 | 0.47 | 91 | 1019.1 |
| 20260506213321 | 43 | 250 | 5.2 | 6.1 | 0.01 | 0.77 | 0.47 | 91 | 1019.1 |
| 20260506212413 | 43 | 223 | 3.5 | 7.0 | 0.01 | 0.77 | 0.47 | 90 | 1019.1 |
| 20260506212325 | 43 | 232 | 3.5 | 7.0 | 0.01 | 0.77 | 0.47 | 88 | 1019.0 |
| 20260506211415 | 43 | 203 | 3.5 | 7.8 | 0.01 | 0.77 | 0.47 | 89 | 1019.0 |
| 20260506211327 | 43 | 207 | 4.3 | 7.8 | 0.01 | 0.77 | 0.47 | 89 | 1019.0 |
| 20260506210418 | 43 | 197 | 1.7 | 7.0 | 0.01 | 0.77 | 0.47 | 89 | 1019.1 |
| 20260506210331 | 43 | 180 | 2.6 | 7.0 | 0.01 | 0.77 | 0.47 | 89 | 1019.1 |
| 20260506205421 | 43 | 213 | 5.2 | 7.0 | 0.00 | 0.78 | 0.46 | 90 | 1019.1 |
| 20260506205314 | 43 | 202 | 5.2 | 7.0 | 0.00 | 0.78 | 0.46 | 91 | 1019.1 |
| 20260506204426 | 43 | 195 | 4.3 | 6.1 | 0.00 | 0.78 | 0.46 | 91 | 1019.3 |
| 20260506204323 | 43 | 180 | 4.3 | 6.1 | 0.00 | 0.78 | 0.46 | 90 | 1019.3 |
| 20260506203415 | 43 | 246 | 3.5 | 5.2 | 0.00 | 0.78 | 0.46 | 90 | 1019.3 |
| 20260506203327 | 43 | 210 | 3.5 | 5.2 | 0.00 | 0.78 | 0.46 | 90 | 1019.3 |
| 20260506202437 | 43 | 218 | 4.3 | 7.0 | 0.00 | 0.78 | 0.46 | 90 | 1019.3 |
| 20260506202326 | 43 | 194 | 4.3 | 7.0 | 0.00 | 0.78 | 0.46 | 90 | 1019.3 |
| 20260506201436 | 43 | 212 | 3.5 | 6.1 | 0.00 | 0.78 | 0.46 | 91 | 1019.3 |
| 20260506201326 | 43 | 192 | 2.6 | 5.2 | 0.00 | 0.78 | 0.46 | 91 | 1019.3 |
| 20260506200416 | 43 | 198 | 2.6 | 5.2 | 0.00 | 0.78 | 0.46 | 90 | 1019.2 |
| 20260506200329 | 43 | 155 | 2.6 | 5.2 | 0.00 | 0.78 | 0.46 | 92 | 1019.2 |
| 20260506195422 | 43 | 155 | 4.3 | 7.8 | 0.00 | 0.80 | 0.46 | 92 | 1019.1 |
| 20260506195317 | 43 | 139 | 5.2 | 7.8 | 0.00 | 0.80 | 0.46 | 91 | 1019.1 |
| 20260506194429 | 42 | 167 | 2.6 | 6.1 | 0.00 | 0.80 | 0.46 | 91 | 1019.2 |
| 20260506194320 | 42 | 194 | 3.5 | 6.1 | 0.00 | 0.80 | 0.46 | 91 | 1019.2 |
| 20260506193411 | 42 | 180 | 3.5 | 6.1 | 0.00 | 0.80 | 0.46 | 91 | 1019.3 |
| 20260506193344 | 42 | 152 | 4.3 | 6.1 | 0.00 | 0.80 | 0.46 | 90 | 1019.3 |
| 20260506192413 | 42 | 186 | 2.6 | 6.1 | 0.00 | 0.80 | 0.46 | 90 | 1019.3 |
| 20260506192326 | 42 | 169 | 2.6 | 6.1 | 0.00 | 0.80 | 0.46 | 90 | 1019.3 |
| 20260506191418 | 42 | 150 | 5.2 | 6.1 | 0.01 | 0.80 | 0.46 | 93 | 1019.2 |
| 20260506191315 | 42 | 165 | 4.3 | 6.1 | 0.01 | 0.80 | 0.46 | 91 | 1019.1 |
| 20260506190427 | 42 | 144 | 2.6 | 5.2 | 0.01 | 0.80 | 0.46 | 92 | 1019.2 |
| 20260506190338 | 42 | 141 | 3.5 | 5.2 | 0.01 | 0.80 | 0.46 | 92 | 1019.2 |
| 20260506185429 | 42 | 161 | 2.6 | 6.1 | 0.01 | 0.80 | 0.46 | 93 | 1019.3 |
| 20260506185321 | 42 | 148 | 3.5 | 6.1 | 0.01 | 0.80 | 0.46 | 93 | 1019.3 |
| 20260506184411 | 41 | 170 | 2.6 | 6.1 | 0.01 | 0.80 | 0.46 | 92 | 1019.4 |
| 20260506184324 | 41 | 149 | 2.6 | 6.1 | 0.01 | 0.80 | 0.46 | 93 | 1019.4 |
| 20260506183436 | 41 | 63 | 0.9 | 6.1 | 0.01 | 0.80 | 0.46 | 94 | 1019.6 |
| 20260506183330 | 41 | 28 | 0.9 | 6.1 | 0.01 | 0.80 | 0.46 | 93 | 1019.5 |
| 20260506182417 | 40 | 126 | 2.6 | 4.3 | 0.02 | 0.80 | 0.46 | 95 | 1019.6 |
| 20260506182312 | 40 | 122 | 2.6 | 4.3 | 0.01 | 0.79 | 0.45 | 95 | 1019.6 |
| 20260506181423 | 40 | 136 | 1.7 | 2.6 | 0.01 | 0.79 | 0.45 | 94 | 1019.7 |
| 20260506181315 | 40 | 155 | 1.7 | 2.6 | 0.01 | 0.79 | 0.45 | 94 | 1019.7 |
| 20260506180439 | 40 | 117 | 0.9 | 4.3 | 0.02 | 0.79 | 0.45 | 95 | 1019.7 |
| 20260506180311 | 39 | 96 | 0.9 | 5.2 | 0.02 | 0.79 | 0.45 | 94 | 1019.8 |
| 20260506175422 | 39 | 118 | 0.9 | 6.1 | 0.03 | 0.79 | 0.45 | 95 | 1019.7 |
| 20260506175316 | 39 | 142 | 0.9 | 6.1 | 0.04 | 0.79 | 0.45 | 95 | 1019.7 |
| 20260506174426 | 38 | 84 | 0.9 | 3.5 | 0.05 | 0.79 | 0.45 | 96 | 1019.8 |
| 20260506174319 | 38 | 160 | 0.9 | 3.5 | 0.05 | 0.79 | 0.45 | 96 | 1019.7 |
| 20260506173416 | 38 | 82 | 0.9 | 2.6 | 0.07 | 0.79 | 0.45 | 96 | 1019.8 |
| 20260506173329 | 38 | 82 | 0.9 | 2.6 | 0.07 | 0.79 | 0.45 | 96 | 1019.8 |
| 20260506172420 | 38 | 279 | 0.9 | 4.3 | 0.08 | 0.78 | 0.44 | 96 | 1019.8 |
| 20260506172313 | 38 | 164 | 1.7 | 4.3 | 0.08 | 0.78 | 0.44 | 96 | 1019.8 |
| 20260506171424 | 37 | 101 | 2.6 | 6.1 | 0.10 | 0.78 | 0.44 | 97 | 1019.8 |
| 20260506171316 | 37 | 130 | 2.6 | 6.1 | 0.10 | 0.78 | 0.44 | 96 | 1019.8 |
| 20260506170427 | 37 | 91 | 1.7 | 4.3 | 0.11 | 0.77 | 0.43 | 96 | 1019.7 |
| 20260506170321 | 37 | 234 | 0.9 | 4.3 | 0.11 | 0.77 | 0.43 | 96 | 1019.7 |
| 20260506165452 | 37 | 147 | 3.5 | 6.1 | 0.12 | 0.76 | 0.42 | 97 | 1019.7 |
| 20260506165326 | 37 | 141 | 3.5 | 6.1 | 0.12 | 0.76 | 0.41 | 97 | 1019.6 |
| 20260506164418 | 36 | 134 | 2.6 | 4.3 | 0.13 | 0.75 | 0.40 | 97 | 1019.6 |
| 20260506164311 | 36 | 140 | 1.7 | 4.3 | 0.13 | 0.75 | 0.40 | 97 | 1019.5 |
| 20260506163423 | 36 | 136 | 3.5 | 6.1 | 0.13 | 0.73 | 0.38 | 97 | 1019.5 |
| 20260506163314 | 36 | 115 | 2.6 | 6.1 | 0.14 | 0.73 | 0.38 | 97 | 1019.4 |
| 20260506162425 | 36 | 74 | 1.7 | 3.5 | 0.13 | 0.71 | 0.36 | 97 | 1019.4 |
| 20260506162314 | 35 | 86 | 1.7 | 3.5 | 0.14 | 0.71 | 0.36 | 97 | 1019.4 |
| 20260506161446 | 35 | 198 | 1.7 | 3.5 | 0.13 | 0.69 | 0.34 | 97 | 1019.3 |
| 20260506161338 | 35 | 20 | 1.7 | 3.5 | 0.13 | 0.69 | 0.34 | 97 | 1019.3 |
| 20260506160409 | 35 | 63 | 1.7 | 2.6 | 0.12 | 0.67 | 0.32 | 97 | 1019.3 |
| 20260506160346 | 35 | 124 | 1.7 | 2.6 | 0.12 | 0.67 | 0.32 | 97 | 1019.2 |
| 20260506155413 | 35 | 46 | 0.9 | 2.6 | 0.09 | 0.64 | 0.29 | 98 | 1019.1 |
| 20260506155325 | 35 | 145 | 0.9 | 2.6 | 0.09 | 0.64 | 0.29 | 98 | 1019.1 |
| 20260506154417 | 34 | 83 | 1.7 | 3.5 | 0.08 | 0.62 | 0.27 | 98 | 1018.9 |
| 20260506154327 | 34 | 82 | 1.7 | 3.5 | 0.08 | 0.62 | 0.27 | 98 | 1018.9 |